SCP
0 0 0 0 0 0 0 0 0 0 0 0 0 0 0 0 0 0 0 -0 -0 -0
0 0 0 0 0 0 0 0 0 0 0 0 0 0 0 0 0 0 0 0 -0 -0
0 0 -0 0 0 0 0 0 0 0 0 0 0 0 0 0 0 0 0 0 -0 0
0 0 0 0 0 0 0 0 0 0 0 0 0 0 0 0 0 0 0 0 0 0
0 0 0 0 0 0 0 0 0 0 0 0 0 0 0 0 0 0 0 0 0 0
0 0 0 0 0 0 0 0 0 0 0 0 0 0 0 0 0 0 0 0 0 0
0 0 0 0 0 0 0 0 0 0 0 0 0 0 0 0 0 0 0 0 0 0
0 0 0 0 0 0 0 0 0 0 0 0 0 0 0 0 0 0 0 0 0 0
0 0 0 0 0 0 0 0 0 0 0 0 0 0 0 0 0 0 0 0 0 0
0 0 0 0 0 0 0 0 0 0 0 0 0 0 0 0 0 0 0 0 0 0
0 0 0 0 0 0 0 0 0 0 0 0 0 0 0 0 0 0 0 0 0 0
0 0 0 0 0 0 0 0 0 0 0 0 0 0 0 0 0 0 0 0 0 0
0 0 0 0 0 0 0 0 0 0 0 0 0 0 0 0 0 0 0 0 0 0
0 0 0 0 0 0 0 0 0 0 0 0 0 0 0 0 0 0 0 0 0 1
Wind_Speed_500mb
35 34 32 36 30 36 32 29 25 19 26 27 24 24 24 23 20 20 20 21 19 14
34 33 31 28 35 33 32 32 29 29 25 28 25 27 27 28 29 29 30 29 26 25
33 32 31 34 34 34 31 35 33 33 29 29 31 28 28 28 27 30 32 34 31 26
38 35 32 37 36 30 28 29 34 33 31 31 29 30 30 28 30 31 31 28 29 28
35 38 36 37 41 37 34 35 38 40 37 34 30 34 36 38 39 36 35 29 28 28
38 34 33 37 38 39 41 44 42 44 43 39 36 32 36 35 36 36 35 31 30 31
50 48 44 39 41 43 41 44 49 52 49 45 38 39 38 36 41 40 39 36 34 31
18 25 33 34 38 43 43 45 49 50 54 51 46 44 38 40 41 43 41 40 41 40
50 41 38 34 43 40 46 42 48 48 48 51 56 51 49 45 46 45 47 47 46 46
42 51 52 47 41 31 35 46 43 49 50 49 49 52 49 46 48 48 48 46 46 48
32 38 42 43 46 49 49 43 49 50 54 57 52 51 51 49 47 48 50 50 49 51
19 24 26 27 30 35 34 37 47 52 53 57 53 47 48 46 48 51 52 53 54 55
14 21 27 30 31 28 31 36 37 39 51 52 51 45 44 44 49 56 53 52 55 57
17 23 24 27 30 31 32 34 34 37 38 42 42 36 37 39 45 49 51 56 56 54
Wind_Direction_500mb
231 237 241 247 239 241 233 235 240 251 240 240 240 237 237 241 251 264 280 286 286 274
239 241 242 241 240 233 235 238 244 243 238 232 239 241 238 243 252 261 267 275 279 271
243 251 249 238 236 237 246 243 248 234 232 239 241 244 244 245 246 252 261 266 262 266
243 249 254 243 242 237 240 239 235 242 242 243 242 248 255 258 259 265 268 270 255 254
241 241 249 248 248 246 245 243 242 243 244 247 250 251 256 262 263 267 266 256 251 251
238 242 247 248 250 252 248 246 245 244 247 253 256 258 254 259 253 258 259 256 256 259
238 246 253 253 252 252 253 251 248 247 250 253 257 256 257 259 254 252 253 255 256 260
255 253 248 258 262 259 254 253 255 250 249 249 252 253 253 258 256 251 253 256 255 260
262 265 260 264 287 260 254 263 254 254 255 254 250 246 253 257 252 253 258 261 264 263
266 269 273 270 279 272 272 263 257 253 255 255 253 252 250 244 252 256 260 263 265 264
270 273 276 274 271 273 274 279 262 253 255 258 253 251 259 252 250 255 258 262 262 263
272 278 279 284 282 288 271 276 264 257 254 255 264 270 267 253 251 255 260 261 263 263
309 293 285 286 283 285 269 272 274 263 253 256 259 255 257 256 257 258 259 262 264 264
308 308 293 297 294 281 276 278 274 270 262 268 249 249 253 257 267 271 272 266 264 264
Wind_Speed_850mb
35 34 32 36 30 36 32 29 25 19 26 27 24 24 24 23 20 20 20 21 19 14
34 33 31 28 35 33 32 32 29 29 25 28 25 27 27 28 29 29 30 29 26 25
33 32 31 34 34 34 31 35 33 33 29 29 31 28 28 28 27 30 32 34 31 26
38 35 32 37 36 30 28 29 34 33 31 31 29 30 30 28 30 31 31 28 29 28
35 38 36 37 41 37 34 35 38 40 37 34 30 34 36 38 39 36 35 29 28 28
38 34 33 37 38 39 41 44 42 44 43 39 36 32 36 35 36 36 35 31 30 31
50 48 44 39 41 43 41 44 49 52 49 45 38 39 38 36 41 40 39 36 34 31
18 25 33 34 38 43 43 45 49 50 54 51 46 44 38 40 41 43 41 40 41 40
50 41 38 34 43 40 46 42 48 48 48 51 56 51 49 45 46 45 47 47 46 46
42 51 52 47 41 31 35 46 43 49 50 49 49 52 49 46 48 48 48 46 46 48
32 38 42 43 46 49 49 43 49 50 54 57 52 51 51 49 47 48 50 50 49 51
19 24 26 27 30 35 34 37 47 52 53 57 53 47 48 46 48 51 52 53 54 55
14 21 27 30 31 28 31 36 37 39 51 52 51 45 44 44 49 56 53 52 55 57
17 23 24 27 30 31 32 34 34 37 38 42 42 36 37 39 45 49 51 56 56 54
Wind_Direction_850mb
231 237 241 247 239 241 233 235 240 251 240 240 240 237 237 241 251 264 280 286 286 274
239 241 242 241 240 233 235 238 244 243 238 232 239 241 238 243 252 261 267 275 279 271
243 251 249 238 236 237 246 243 248 234 232 239 241 244 244 245 246 252 261 266 262 266
243 249 254 243 242 237 240 239 235 242 242 243 242 248 255 258 259 265 268 270 255 254
241 241 249 248 248 246 245 243 242 243 244 247 250 251 256 262 263 267 266 256 251 251
238 242 247 248 250 252 248 246 245 244 247 253 256 258 254 259 253 258 259 256 256 259
238 246 253 253 252 252 253 251 248 247 250 253 257 256 257 259 254 252 253 255 256 260
255 253 248 258 262 259 254 253 255 250 249 249 252 253 253 258 256 251 253 256 255 260
262 265 260 264 287 260 254 263 254 254 255 254 250 246 253 257 252 253 258 261 264 263
266 269 273 270 279 272 272 263 257 253 255 255 253 252 250 244 252 256 260 263 265 264
270 273 276 274 271 273 274 279 262 253 255 258 253 251 259 252 250 255 258 262 262 263
272 278 279 284 282 288 271 276 264 257 254 255 264 270 267 253 251 255 260 261 263 263
309 293 285 286 283 285 269 272 274 263 253 256 259 255 257 256 257 258 259 262 264 264
308 308 293 297 294 281 276 278 274 270 262 268 249 249 253 257 267 271 272 266 264 264